HAZ8389 ZGGG-WAHI

Flight info

Callsign HAZ8389
Flight time N/A
Altitude 35000
Route SAREX9 SAREX W6 NLG W18 TAMOT B330 BIGEX A583 AKOTA/N0485F360 M754 BRU R223 BUTAX P648 OKADA/N0476F380 P648 RAFIS/N0479F370 A576S ANY DCT SO
Aircraft A339/H-SADE1E2E3GHIJ3J5M1P2RWXY/LB2D1

Departure

Time 2026-04-30 18:48
Airport Guangzhou Baiyun International Airport (ZGGG)

Arrival

Time N/A
Airport Yogyakarta International Airport (WAHI)
Time Latitude Longitude Altitude Speed Heading
2026-04-30 18:39 23.38657 113.30181 65 ft 2 kts 86°
2026-04-30 18:39 23.38658 113.30164 65 ft 2 kts 105°
2026-04-30 18:39 23.38661 113.30156 65 ft 0 kts 116°
2026-04-30 18:40 23.38662 113.30152 65 ft 0 kts 116°
2026-04-30 18:41 23.38661 113.30155 65 ft 1 kts 116°
2026-04-30 18:42 23.38651 113.30177 65 ft 5 kts 116°
2026-04-30 18:42 23.38601 113.30286 65 ft 10 kts 116°
2026-04-30 18:42 23.38570 113.30368 65 ft 12 kts 107°
2026-04-30 18:45 23.37652 113.30358 65 ft 13 kts 193°
2026-04-30 18:45 23.37607 113.30377 65 ft 6 kts 98°
2026-04-30 18:45 23.37601 113.30418 65 ft 6 kts 105°
2026-04-30 18:46 23.37587 113.30473 65 ft 9 kts 104°
2026-04-30 18:46 23.37583 113.30534 65 ft 4 kts 54°
2026-04-30 18:46 23.37620 113.30549 65 ft 6 kts 14°
2026-04-30 18:46 23.37689 113.30569 65 ft 15 kts 15°
2026-04-30 18:47 23.38002 113.30656 65 ft 76 kts 15°
2026-04-30 18:47 23.38698 113.30844 65 ft 129 kts 14°
2026-04-30 18:47 23.39727 113.31122 68 ft 172 kts 16°
2026-04-30 18:47 23.40913 113.31426 530 ft 175 kts 15°
2026-04-30 18:48 23.42091 113.31753 1048 ft 174 kts 17°
2026-04-30 18:48 23.43253 113.32104 1506 ft 175 kts 18°
2026-04-30 18:48 23.44426 113.32462 1951 ft 176 kts 18°
2026-04-30 18:48 23.45608 113.32821 2395 ft 177 kts 18°
2026-04-30 18:49 23.46812 113.33182 2841 ft 178 kts 18°
2026-04-30 18:49 23.47998 113.33538 3255 ft 181 kts 18°
2026-04-30 18:49 23.49250 113.33916 3522 ft 193 kts 17°
2026-04-30 18:49 23.50615 113.34326 3780 ft 207 kts 17°
2026-04-30 18:50 23.52056 113.34758 4052 ft 222 kts 16°
2026-04-30 18:50 23.53600 113.35220 4339 ft 238 kts 16°
2026-04-30 18:50 23.55237 113.35706 4645 ft 253 kts 14°
2026-04-30 18:50 23.57001 113.36099 5159 ft 260 kts 10°
2026-04-30 18:51 23.58803 113.36443 5758 ft 263 kts
2026-04-30 18:51 23.60615 113.36597 6305 ft 266 kts 349°
2026-04-30 18:51 23.62298 113.35820 6889 ft 266 kts 319°
2026-04-30 18:51 23.63440 113.34248 7329 ft 271 kts 291°
2026-04-30 18:52 23.63841 113.32227 7757 ft 277 kts 276°
2026-04-30 18:52 23.64082 113.30135 8365 ft 278 kts 277°
2026-04-30 18:52 23.64346 113.28052 8950 ft 279 kts 277°
2026-04-30 18:52 23.64623 113.25963 9526 ft 280 kts 277°
2026-04-30 18:53 23.64908 113.23850 10089 ft 281 kts 277°
2026-04-30 18:53 23.65198 113.21722 10462 ft 289 kts 278°
2026-04-30 18:53 23.65500 113.19506 10687 ft 303 kts 278°
2026-04-30 18:53 23.65581 113.17175 10902 ft 316 kts 261°
2026-04-30 18:54 23.64804 113.14878 11124 ft 331 kts 239°
2026-04-30 18:54 23.63232 113.12950 11341 ft 346 kts 224°
2026-04-30 18:54 23.61443 113.11150 11560 ft 358 kts 225°
2026-04-30 18:54 23.59532 113.09347 11772 ft 373 kts 216°
2026-04-30 18:55 23.57128 113.08179 12143 ft 385 kts 197°
2026-04-30 18:55 23.51687 113.07882 13193 ft 394 kts 182°
2026-04-30 18:55 23.48968 113.07921 13665 ft 397 kts 182°
2026-04-30 18:56 23.43395 113.07969 14619 ft 402 kts 182°
2026-04-30 18:56 23.40959 113.07985 15024 ft 404 kts 182°
2026-04-30 18:56 23.38147 113.08001 15484 ft 407 kts 182°
2026-04-30 18:57 23.32423 113.08030 16387 ft 412 kts 182°
2026-04-30 18:57 23.29538 113.08057 16820 ft 415 kts 180°
2026-04-30 18:57 23.26645 113.08403 17260 ft 421 kts 172°
2026-04-30 18:58 23.21035 113.10339 18115 ft 431 kts 160°
2026-04-30 18:58 23.18246 113.11619 18541 ft 434 kts 160°
2026-04-30 18:58 23.15456 113.12918 18940 ft 437 kts 160°
2026-04-30 18:59 23.09809 113.15517 19722 ft 443 kts 160°
2026-04-30 19:00 23.01778 113.20538 20822 ft 460 kts 134°
2026-04-30 19:00 22.99918 113.23384 21190 ft 465 kts 120°
2026-04-30 19:00 22.96996 113.29672 21929 ft 470 kts 117°
2026-04-30 19:01 22.94031 113.36037 22634 ft 474 kts 118°
2026-04-30 19:01 22.92517 113.39226 22984 ft 476 kts 118°
2026-04-30 19:02 22.89303 113.45503 23623 ft 478 kts 130°
2026-04-30 19:02 22.83875 113.49419 24255 ft 470 kts 166°
2026-04-30 19:03 22.77495 113.50787 24887 ft 472 kts 171°
2026-04-30 19:03 22.70971 113.52190 25487 ft 477 kts 171°
2026-04-30 19:04 22.64401 113.53653 26080 ft 481 kts 171°
2026-04-30 19:04 22.57835 113.55137 26676 ft 485 kts 168°
2026-04-30 19:05 22.51913 113.58727 27164 ft 502 kts 136°
2026-04-30 19:05 22.48016 113.64991 27918 ft 504 kts 122°
2026-04-30 19:06 22.44467 113.71449 28627 ft 502 kts 123°
2026-04-30 19:06 22.42681 113.74628 28976 ft 502 kts 123°
2026-04-30 19:06 22.39137 113.80858 29684 ft 501 kts 123°
2026-04-30 19:07 22.35219 113.87045 30388 ft 498 kts 130°
2026-04-30 19:07 22.33041 113.89938 30741 ft 496 kts 133°
2026-04-30 19:08 22.28429 113.95395 31423 ft 494 kts 136°
2026-04-30 19:08 22.23519 114.00417 32134 ft 489 kts 142°
2026-04-30 19:08 22.20916 114.02678 32470 ft 487 kts 146°
2026-04-30 19:09 22.15355 114.06732 33132 ft 483 kts 152°
2026-04-30 19:09 22.12476 114.08482 33432 ft 481 kts 155°
2026-04-30 19:09 22.09528 114.10169 33691 ft 481 kts 155°
2026-04-30 19:10 22.03583 114.13552 34173 ft 483 kts 155°
2026-04-30 19:10 21.97640 114.16946 34670 ft 484 kts 156°
2026-04-30 19:11 21.94667 114.18645 34927 ft 483 kts 155°
2026-04-30 19:11 21.88721 114.22044 35011 ft 485 kts 155°
2026-04-30 19:12 21.82719 114.25476 35010 ft 486 kts 155°
2026-04-30 19:12 21.76750 114.28886 35005 ft 485 kts 155°
2026-04-30 19:13 21.64797 114.35706 35002 ft 486 kts 156°
2026-04-30 19:14 21.58796 114.39125 34999 ft 486 kts 156°
2026-04-30 19:14 21.52846 114.42511 34996 ft 485 kts 156°
2026-04-30 19:15 21.46841 114.45925 34996 ft 485 kts 156°
2026-04-30 19:15 21.37912 114.50997 34987 ft 485 kts 156°
2026-04-30 19:16 21.31947 114.54381 34988 ft 485 kts 156°
2026-04-30 19:17 21.22974 114.59467 34985 ft 485 kts 156°
2026-04-30 19:17 21.14011 114.64539 34978 ft 484 kts 156°
2026-04-30 19:18 21.05090 114.69580 34974 ft 484 kts 157°
2026-04-30 19:19 20.99176 114.72919 34971 ft 484 kts 157°
2026-04-30 19:19 20.90259 114.77943 34968 ft 484 kts 157°
2026-04-30 19:20 20.84453 114.81213 34971 ft 484 kts 157°
2026-04-30 19:21 20.75517 114.86241 34969 ft 483 kts 157°
2026-04-30 19:22 20.63615 114.92925 34965 ft 483 kts 156°
2026-04-30 19:23 20.45723 115.02953 34955 ft 483 kts 157°
2026-04-30 19:24 20.36806 115.07941 34956 ft 483 kts 156°
2026-04-30 19:25 20.21871 115.16278 34954 ft 483 kts 156°
2026-04-30 19:26 20.09970 115.22910 34952 ft 483 kts 156°
2026-04-30 19:27 20.01020 115.27891 34950 ft 483 kts 156°
2026-04-30 19:28 19.92082 115.32858 34950 ft 483 kts 156°
2026-04-30 19:29 19.80171 115.39467 34950 ft 482 kts 156°
2026-04-30 19:30 19.68231 115.46081 34949 ft 482 kts 156°
2026-04-30 19:31 19.56341 115.52657 34948 ft 481 kts 156°
2026-04-30 19:31 19.47475 115.57552 34949 ft 480 kts 156°
2026-04-30 19:32 19.41522 115.60836 34951 ft 480 kts 156°
2026-04-30 19:32 19.35587 115.64107 34951 ft 480 kts 156°
2026-04-30 19:33 19.29647 115.67378 34950 ft 480 kts 156°
2026-04-30 19:33 19.23740 115.70628 34951 ft 481 kts 156°
2026-04-30 19:34 19.17795 115.73897 34949 ft 480 kts 156°
2026-04-30 19:35 19.08896 115.78786 34938 ft 479 kts 156°
2026-04-30 19:35 19.02989 115.82029 34937 ft 479 kts 156°
2026-04-30 19:36 18.97041 115.85291 34937 ft 478 kts 156°
2026-04-30 19:36 18.88190 115.90138 34930 ft 479 kts 156°
2026-04-30 19:37 18.82235 115.93401 34931 ft 479 kts 156°
2026-04-30 19:37 18.76342 115.96622 34929 ft 479 kts 156°
2026-04-30 19:38 18.70390 115.99877 34931 ft 479 kts 156°
2026-04-30 19:38 18.64468 116.03113 34928 ft 479 kts 156°
2026-04-30 19:39 18.58554 116.06342 34929 ft 478 kts 156°
2026-04-30 19:39 18.52632 116.09572 34927 ft 478 kts 156°
2026-04-30 19:40 18.46742 116.12782 34929 ft 479 kts 156°
2026-04-30 19:40 18.40783 116.16027 34927 ft 479 kts 156°
2026-04-30 19:41 18.34873 116.19244 34930 ft 479 kts 156°
2026-04-30 19:41 18.28967 116.22456 34927 ft 479 kts 155°
2026-04-30 19:42 18.23028 116.25684 34929 ft 479 kts 155°
2026-04-30 19:42 18.17098 116.28902 34930 ft 479 kts 155°
2026-04-30 19:43 18.11190 116.32108 34927 ft 479 kts 155°
2026-04-30 19:44 18.02293 116.36931 34928 ft 479 kts 155°
2026-04-30 19:44 17.96336 116.40158 34928 ft 479 kts 155°
2026-04-30 19:45 17.90422 116.43359 34928 ft 479 kts 155°
2026-04-30 19:45 17.84503 116.46560 34929 ft 478 kts 155°
2026-04-30 19:46 17.78562 116.49770 34927 ft 478 kts 155°
2026-04-30 19:46 17.72665 116.52952 34926 ft 478 kts 155°
2026-04-30 19:47 17.66725 116.56154 34923 ft 478 kts 155°
2026-04-30 19:47 17.60831 116.59329 34918 ft 478 kts 155°
2026-04-30 19:48 17.54888 116.62530 34914 ft 478 kts 155°
2026-04-30 19:48 17.48952 116.65725 34909 ft 478 kts 156°
2026-04-30 19:49 17.43061 116.68893 34908 ft 477 kts 156°
2026-04-30 19:49 17.34202 116.73652 34909 ft 476 kts 156°
2026-04-30 19:50 17.28308 116.76818 34910 ft 476 kts 156°
2026-04-30 19:50 17.22387 116.79994 34908 ft 475 kts 156°
2026-04-30 19:51 17.16495 116.83152 34909 ft 476 kts 156°
2026-04-30 19:51 17.10607 116.86307 34909 ft 476 kts 156°
2026-04-30 19:52 17.04682 116.89478 34909 ft 476 kts 156°
2026-04-30 19:52 16.98813 116.92617 34909 ft 475 kts 156°
2026-04-30 19:53 16.92927 116.95766 34910 ft 474 kts 156°
2026-04-30 19:53 16.87048 116.98905 34909 ft 475 kts 156°
2026-04-30 19:54 16.81147 117.02056 34908 ft 474 kts 156°
2026-04-30 19:54 16.75286 117.05183 34908 ft 473 kts 156°
2026-04-30 19:55 16.69389 117.08328 34910 ft 473 kts 156°
2026-04-30 19:55 16.63511 117.11459 34908 ft 474 kts 156°
2026-04-30 19:56 16.57645 117.14582 34907 ft 474 kts 156°
2026-04-30 19:56 16.51638 117.17405 34905 ft 470 kts 164°
2026-04-30 19:57 16.45370 117.19071 34904 ft 464 kts 174°
2026-04-30 19:57 16.38976 117.19548 34898 ft 459 kts 184°
2026-04-30 19:58 16.32603 117.18959 34894 ft 456 kts 190°
2026-04-30 19:58 16.26287 117.18134 34892 ft 456 kts 190°
2026-04-30 19:59 16.19962 117.17310 34892 ft 456 kts 190°
2026-04-30 20:00 16.10502 117.16086 34890 ft 455 kts 190°
2026-04-30 20:00 16.04194 117.15275 34893 ft 455 kts 190°
2026-04-30 20:01 15.94787 117.14064 34890 ft 455 kts 189°
2026-04-30 20:01 15.88479 117.13254 34892 ft 455 kts 189°
2026-04-30 20:02 15.78997 117.12035 34897 ft 456 kts 189°
2026-04-30 20:03 15.69543 117.10822 34905 ft 456 kts 189°
2026-04-30 20:03 15.63225 117.10014 34904 ft 456 kts 189°
2026-04-30 20:04 15.56937 117.09209 34903 ft 456 kts 189°
2026-04-30 20:05 15.47497 117.08001 34902 ft 456 kts 189°
2026-04-30 20:05 15.38019 117.06789 34909 ft 456 kts 189°
2026-04-30 20:06 15.31676 117.05979 34909 ft 456 kts 189°
2026-04-30 20:06 15.25381 117.05175 34912 ft 456 kts 189°
2026-04-30 20:07 15.19074 117.04369 34911 ft 456 kts 189°
2026-04-30 20:08 15.09618 117.03164 34913 ft 457 kts 189°
2026-04-30 20:08 15.03264 117.02354 34912 ft 457 kts 189°
2026-04-30 20:09 14.96958 117.01553 34910 ft 457 kts 189°
2026-04-30 20:09 14.87454 117.00343 34908 ft 457 kts 189°
2026-04-30 20:10 14.77996 116.99140 34904 ft 456 kts 189°
2026-04-30 20:11 14.68510 116.97935 34900 ft 457 kts 188°
2026-04-30 20:11 14.62196 116.97134 34893 ft 458 kts 188°
2026-04-30 20:12 14.52664 116.95925 34889 ft 458 kts 188°
2026-04-30 20:13 14.46337 116.95123 34889 ft 457 kts 188°
2026-04-30 20:13 14.40031 116.94323 34889 ft 457 kts 188°
2026-04-30 20:14 14.33688 116.93520 34890 ft 456 kts 188°
2026-04-30 20:14 14.27407 116.92723 34889 ft 457 kts 188°
2026-04-30 20:15 14.21070 116.91921 34889 ft 457 kts 188°
2026-04-30 20:15 14.14747 116.91124 34889 ft 458 kts 188°
2026-04-30 20:16 14.08372 116.90321 34889 ft 458 kts 188°
2026-04-30 20:16 14.02060 116.89526 34890 ft 458 kts 188°
2026-04-30 20:17 13.95699 116.88724 34888 ft 458 kts 188°
2026-04-30 20:17 13.89344 116.87921 34889 ft 458 kts 188°
2026-04-30 20:18 13.83051 116.87128 34888 ft 457 kts 188°
2026-04-30 20:18 13.76701 116.86329 34888 ft 458 kts 188°
2026-04-30 20:19 13.70340 116.85529 34887 ft 458 kts 188°
2026-04-30 20:19 13.64021 116.84734 34885 ft 459 kts 188°
2026-04-30 20:20 13.57672 116.83935 34883 ft 458 kts 188°
2026-04-30 20:20 13.51330 116.83137 34879 ft 459 kts 188°
2026-04-30 20:21 13.44977 116.82340 34876 ft 458 kts 188°
2026-04-30 20:21 13.38646 116.81544 34875 ft 459 kts 188°
2026-04-30 20:22 13.32257 116.80743 34875 ft 459 kts 188°
2026-04-30 20:22 13.25903 116.79947 34877 ft 459 kts 188°
2026-04-30 20:23 13.19545 116.79148 34873 ft 460 kts 188°
2026-04-30 20:23 13.13181 116.78351 34873 ft 460 kts 188°
2026-04-30 20:24 13.06827 116.77554 34873 ft 460 kts 188°
2026-04-30 20:24 13.00482 116.76760 34880 ft 459 kts 187°
2026-04-30 20:25 12.90947 116.75566 34887 ft 460 kts 187°
2026-04-30 20:26 12.81382 116.74370 34887 ft 460 kts 187°
2026-04-30 20:26 12.71827 116.73179 34888 ft 461 kts 187°
2026-04-30 20:27 12.59051 116.71587 34889 ft 461 kts 187°
2026-04-30 20:28 12.46265 116.69994 34889 ft 460 kts 187°
2026-04-30 20:30 12.30312 116.68008 34889 ft 462 kts 187°
2026-04-30 20:31 12.11117 116.65620 34883 ft 462 kts 187°
2026-04-30 20:32 11.95131 116.63636 34876 ft 462 kts 187°
2026-04-30 20:33 11.85514 116.62443 34876 ft 463 kts 187°
2026-04-30 20:34 11.75891 116.61250 34874 ft 464 kts 187°
2026-04-30 20:35 11.66274 116.60059 34870 ft 463 kts 187°
2026-04-30 20:35 11.56616 116.58862 34869 ft 464 kts 187°
2026-04-30 20:36 11.50199 116.58068 34870 ft 464 kts 187°
2026-04-30 20:37 11.40546 116.56874 34869 ft 465 kts 187°
2026-04-30 20:37 11.34122 116.56080 34870 ft 465 kts 187°
2026-04-30 20:38 11.27680 116.55283 34870 ft 465 kts 187°
2026-04-30 20:38 11.21228 116.54485 34869 ft 465 kts 187°
2026-04-30 20:39 11.11605 116.53299 34870 ft 465 kts 187°
2026-04-30 20:40 11.01906 116.52106 34869 ft 466 kts 187°
2026-04-30 20:40 10.95433 116.51309 34869 ft 467 kts 187°
2026-04-30 20:41 10.85768 116.50119 34865 ft 467 kts 187°
2026-04-30 20:41 10.79298 116.49322 34864 ft 467 kts 187°
2026-04-30 20:42 10.72828 116.48526 34865 ft 467 kts 187°
2026-04-30 20:43 10.63124 116.47333 34868 ft 467 kts 187°
2026-04-30 20:43 10.56643 116.46536 34874 ft 467 kts 186°
2026-04-30 20:44 10.46943 116.45344 34879 ft 469 kts 186°
2026-04-30 20:45 10.33924 116.43745 34872 ft 469 kts 186°
2026-04-30 20:45 10.27427 116.42949 34871 ft 470 kts 186°
2026-04-30 20:46 10.14428 116.41354 34865 ft 470 kts 186°
2026-04-30 20:47 10.04654 116.40157 34869 ft 470 kts 186°
2026-04-30 20:48 9.94862 116.38958 34867 ft 471 kts 186°
2026-04-30 20:48 9.88367 116.38164 34870 ft 471 kts 186°
2026-04-30 20:49 9.81820 116.37361 34866 ft 471 kts 186°
2026-04-30 20:50 9.72011 116.36162 34868 ft 471 kts 186°
2026-04-30 20:50 9.65519 116.35368 34865 ft 471 kts 186°
2026-04-30 20:51 9.58996 116.34570 34868 ft 470 kts 186°
2026-04-30 20:51 9.49239 116.33379 34867 ft 471 kts 186°
2026-04-30 20:52 9.42712 116.32582 34862 ft 471 kts 186°
2026-04-30 20:53 9.32936 116.31388 34864 ft 471 kts 186°
2026-04-30 20:53 9.26380 116.30588 34858 ft 471 kts 186°
2026-04-30 20:54 9.16584 116.29395 34853 ft 471 kts 186°
2026-04-30 20:55 9.06821 116.28207 34848 ft 470 kts 186°
2026-04-30 20:55 9.00298 116.27412 34847 ft 471 kts 186°
2026-04-30 20:56 8.90526 116.26222 34849 ft 471 kts 186°
2026-04-30 20:57 8.80708 116.25028 34848 ft 472 kts 186°
2026-04-30 20:57 8.74177 116.24232 34848 ft 472 kts 186°
2026-04-30 20:58 8.64394 116.22675 34849 ft 473 kts 192°
2026-04-30 20:58 8.58046 116.20830 34850 ft 474 kts 198°
2026-04-30 20:59 8.48733 116.17474 34860 ft 474 kts 199°
2026-04-30 21:00 8.36249 116.12964 34870 ft 475 kts 198°
2026-04-30 21:01 8.26867 116.09580 34871 ft 476 kts 198°
2026-04-30 21:02 8.17516 116.06210 34871 ft 477 kts 198°
2026-04-30 21:02 8.11221 116.03944 34870 ft 476 kts 198°
2026-04-30 21:03 8.04999 116.01704 34870 ft 476 kts 198°
2026-04-30 21:03 7.98715 115.99441 34870 ft 476 kts 199°
2026-04-30 21:04 7.92488 115.97196 34869 ft 476 kts 199°
2026-04-30 21:04 7.83098 115.93810 34869 ft 476 kts 198°
2026-04-30 21:05 7.76851 115.91556 34868 ft 476 kts 199°
2026-04-30 21:05 7.70608 115.89306 34868 ft 476 kts 198°
2026-04-30 21:06 7.64378 115.87060 34867 ft 475 kts 198°
2026-04-30 21:06 7.58117 115.84803 34868 ft 475 kts 198°
2026-04-30 21:07 7.51863 115.82551 34862 ft 476 kts 198°
2026-04-30 21:07 7.45612 115.80299 34852 ft 476 kts 198°
2026-04-30 21:08 7.39359 115.78048 34848 ft 476 kts 198°
2026-04-30 21:08 7.33131 115.75808 34848 ft 476 kts 198°
2026-04-30 21:09 7.26839 115.73544 34847 ft 476 kts 198°
2026-04-30 21:09 7.20603 115.71302 34850 ft 476 kts 198°
2026-04-30 21:10 7.14365 115.69058 34852 ft 476 kts 198°
2026-04-30 21:10 7.08132 115.66818 34848 ft 476 kts 198°
2026-04-30 21:11 7.01863 115.64565 34846 ft 476 kts 198°
2026-04-30 21:11 6.95609 115.62318 34847 ft 477 kts 198°
2026-04-30 21:12 6.89319 115.60059 34848 ft 477 kts 198°
2026-04-30 21:12 6.83065 115.57815 34856 ft 476 kts 198°
2026-04-30 21:13 6.76832 115.55576 34855 ft 476 kts 198°
2026-04-30 21:13 6.70581 115.53334 34855 ft 476 kts 198°
2026-04-30 21:14 6.64317 115.51086 34855 ft 477 kts 198°
2026-04-30 21:14 6.58045 115.48836 34853 ft 478 kts 198°
2026-04-30 21:15 6.51794 115.46595 34852 ft 477 kts 198°
2026-04-30 21:15 6.45496 115.44336 34852 ft 477 kts 198°
2026-04-30 21:16 6.39249 115.42097 34847 ft 477 kts 198°
2026-04-30 21:16 6.32978 115.39851 34839 ft 477 kts 198°
2026-04-30 21:17 6.26718 115.37609 34835 ft 477 kts 198°
2026-04-30 21:17 6.20451 115.35364 34837 ft 478 kts 198°
2026-04-30 21:18 6.14186 115.33122 34836 ft 478 kts 198°
2026-04-30 21:18 6.07865 115.30859 34833 ft 479 kts 198°
2026-04-30 21:19 6.01617 115.28622 34835 ft 478 kts 198°
2026-04-30 21:19 5.95333 115.26374 34837 ft 477 kts 198°
2026-04-30 21:20 5.89078 115.24135 34839 ft 477 kts 198°
2026-04-30 21:20 5.82801 115.21889 34847 ft 478 kts 198°
2026-04-30 21:21 5.76523 115.19644 34850 ft 478 kts 198°
2026-04-30 21:22 5.67075 115.16267 34851 ft 479 kts 198°
2026-04-30 21:23 5.54496 115.11811 34852 ft 477 kts 198°
2026-04-30 21:23 5.45088 115.08473 34854 ft 478 kts 198°
2026-04-30 21:24 5.38797 115.06242 34853 ft 479 kts 198°
2026-04-30 21:24 5.32489 115.04004 34851 ft 480 kts 198°
2026-04-30 21:25 5.22976 115.00726 34857 ft 480 kts 198°
2026-04-30 21:26 5.13508 114.97492 34855 ft 480 kts 198°
2026-04-30 21:27 5.04018 114.94244 34857 ft 479 kts 198°
2026-04-30 21:27 4.97684 114.92074 34859 ft 480 kts 197°
2026-04-30 21:28 4.87988 114.89417 34860 ft 479 kts 189°
2026-04-30 21:29 4.78029 114.88340 34859 ft 477 kts 180°
2026-04-30 21:30 4.61417 114.87974 34875 ft 477 kts 180°
2026-04-30 21:31 4.44915 114.86163 34907 ft 480 kts 197°
2026-04-30 21:32 4.38781 114.83517 34913 ft 482 kts 208°
2026-04-30 21:32 4.35937 114.81767 34909 ft 482 kts 213°
2026-04-30 21:32 4.30515 114.77742 34906 ft 481 kts 216°
2026-04-30 21:33 4.22546 114.71690 34903 ft 480 kts 216°
2026-04-30 21:34 4.17217 114.67668 34907 ft 480 kts 216°
2026-04-30 21:34 4.09183 114.61617 34910 ft 480 kts 216°
2026-04-30 21:35 4.03843 114.57596 34905 ft 480 kts 216°
2026-04-30 21:35 3.98501 114.53570 34903 ft 479 kts 216°
2026-04-30 21:36 3.93184 114.49568 34905 ft 479 kts 216°
2026-04-30 21:37 3.82698 114.41316 34915 ft 478 kts 218°
2026-04-30 21:37 3.77487 114.37185 34913 ft 478 kts 218°
2026-04-30 21:38 3.72222 114.33021 34909 ft 479 kts 217°
2026-04-30 21:38 3.67017 114.28906 34906 ft 479 kts 217°
2026-04-30 21:39 3.61759 114.24752 34902 ft 479 kts 217°
2026-04-30 21:39 3.56541 114.20629 34895 ft 478 kts 217°
2026-04-30 21:40 3.51314 114.16500 34909 ft 478 kts 217°
2026-04-30 21:40 3.46108 114.12388 34915 ft 478 kts 217°
2026-04-30 21:41 3.40882 114.08262 34924 ft 478 kts 218°
2026-04-30 21:41 3.35641 114.04124 34921 ft 478 kts 218°
2026-04-30 21:42 3.30403 113.99989 34914 ft 478 kts 218°
2026-04-30 21:42 3.25217 113.95895 34911 ft 477 kts 218°
2026-04-30 21:43 3.19969 113.91752 34912 ft 477 kts 218°
2026-04-30 21:43 3.14746 113.87631 34914 ft 478 kts 218°
2026-04-30 21:44 3.09540 113.83522 34923 ft 478 kts 218°
2026-04-30 21:44 3.04306 113.79392 34933 ft 478 kts 218°
2026-04-30 21:45 2.99088 113.75277 34943 ft 477 kts 218°
2026-04-30 21:45 2.93871 113.71160 34942 ft 477 kts 218°
2026-04-30 21:46 2.88682 113.67065 34936 ft 477 kts 218°
2026-04-30 21:46 2.83435 113.62924 34932 ft 476 kts 218°
2026-04-30 21:47 2.78233 113.58820 34934 ft 476 kts 218°
2026-04-30 21:47 2.73022 113.54720 34942 ft 477 kts 218°
2026-04-30 21:48 2.67804 113.50629 34941 ft 476 kts 218°
2026-04-30 21:48 2.62573 113.46523 34929 ft 476 kts 218°
2026-04-30 21:49 2.57361 113.42427 34922 ft 476 kts 218°
2026-04-30 21:49 2.52145 113.38329 34909 ft 476 kts 218°
2026-04-30 21:50 2.46923 113.34228 34904 ft 477 kts 218°
2026-04-30 21:50 2.41716 113.30139 34902 ft 478 kts 218°
2026-04-30 21:51 2.36476 113.26023 34903 ft 478 kts 218°
2026-04-30 21:51 2.31236 113.21909 34905 ft 478 kts 218°
2026-04-30 21:52 2.25996 113.17793 34905 ft 478 kts 218°
2026-04-30 21:52 2.20756 113.13677 34903 ft 479 kts 218°
2026-04-30 21:53 2.15526 113.09571 34901 ft 479 kts 218°
2026-04-30 21:53 2.10279 113.05452 34903 ft 479 kts 218°
2026-04-30 21:54 2.05030 113.01331 34991 ft 481 kts 218°
2026-04-30 21:54 2.02397 112.99264 35343 ft 480 kts 218°
2026-04-30 21:54 1.99750 112.97186 35779 ft 477 kts 218°
2026-04-30 21:55 1.97157 112.95151 36154 ft 475 kts 218°
2026-04-30 21:55 1.94563 112.93115 36458 ft 474 kts 218°
2026-04-30 21:55 1.91961 112.91073 36744 ft 474 kts 218°
2026-04-30 21:55 1.89375 112.89043 37023 ft 473 kts 218°
2026-04-30 21:56 1.86805 112.87025 37310 ft 472 kts 218°
2026-04-30 21:56 1.84219 112.84993 37607 ft 471 kts 218°
2026-04-30 21:56 1.81636 112.82965 37874 ft 470 kts 218°
2026-04-30 21:56 1.79070 112.80950 37911 ft 470 kts 218°
2026-04-30 21:57 1.73918 112.76910 37917 ft 469 kts 218°
2026-04-30 21:57 1.68789 112.72884 37923 ft 470 kts 218°
2026-04-30 21:58 1.63620 112.68827 37930 ft 472 kts 218°
2026-04-30 21:58 1.58463 112.64779 37936 ft 473 kts 218°
2026-04-30 21:59 1.53268 112.60727 37945 ft 474 kts 218°
2026-04-30 22:00 1.45417 112.54645 37950 ft 475 kts 218°
2026-04-30 22:00 1.37585 112.48566 37945 ft 475 kts 218°
2026-04-30 22:01 1.32350 112.44502 37939 ft 476 kts 218°
2026-04-30 22:01 1.27116 112.40437 37932 ft 476 kts 218°
2026-04-30 22:02 1.21896 112.36386 37927 ft 477 kts 218°
2026-04-30 22:02 1.16637 112.32304 37919 ft 476 kts 218°
2026-04-30 22:03 1.11399 112.28239 37914 ft 477 kts 218°
2026-04-30 22:03 1.06157 112.24171 37911 ft 476 kts 218°
2026-04-30 22:04 1.00918 112.20102 37907 ft 477 kts 218°
2026-04-30 22:05 0.93028 112.13976 37900 ft 479 kts 218°
2026-04-30 22:05 0.87752 112.09883 37899 ft 479 kts 218°
2026-04-30 22:06 0.82500 112.05807 37899 ft 480 kts 218°
2026-04-30 22:06 0.74574 111.99657 37899 ft 481 kts 218°
2026-04-30 22:07 0.69272 111.95542 37899 ft 480 kts 218°
2026-04-30 22:07 0.63999 111.91449 37907 ft 481 kts 218°
2026-04-30 22:08 0.58709 111.87343 37904 ft 481 kts 218°
2026-04-30 22:08 0.53439 111.83253 37904 ft 481 kts 218°
2026-04-30 22:09 0.48134 111.79137 37903 ft 482 kts 218°
2026-04-30 22:09 0.42840 111.75030 37909 ft 483 kts 218°
2026-04-30 22:10 0.37527 111.70909 37912 ft 483 kts 218°
2026-04-30 22:10 0.32195 111.66771 37913 ft 483 kts 218°
2026-04-30 22:11 0.24224 111.60585 37916 ft 484 kts 218°
2026-04-30 22:12 0.18895 111.56450 37918 ft 484 kts 218°
2026-04-30 22:12 0.13596 111.52340 37918 ft 484 kts 218°
2026-04-30 22:13 0.08256 111.48196 37914 ft 483 kts 218°
2026-04-30 22:13 0.02943 111.44074 37916 ft 485 kts 218°
2026-04-30 22:14 -0.02410 111.39919 37915 ft 485 kts 218°
2026-04-30 22:14 -0.07735 111.35787 37917 ft 486 kts 218°
2026-04-30 22:15 -0.13087 111.31634 37919 ft 486 kts 218°
2026-04-30 22:15 -0.18424 111.27492 37920 ft 485 kts 218°
2026-04-30 22:16 -0.23743 111.23363 37923 ft 485 kts 218°
2026-04-30 22:17 -0.34395 111.15093 37929 ft 485 kts 218°
2026-04-30 22:17 -0.42392 111.08881 37943 ft 485 kts 218°
2026-04-30 22:18 -0.50376 111.02660 37962 ft 484 kts 218°
2026-04-30 22:19 -0.58337 110.96452 37959 ft 485 kts 218°
2026-04-30 22:20 -0.66316 110.90232 37940 ft 485 kts 218°
2026-04-30 22:20 -0.74309 110.83999 37939 ft 486 kts 218°
2026-04-30 22:21 -0.79621 110.79855 37937 ft 485 kts 218°
2026-04-30 22:21 -0.84942 110.75704 37936 ft 485 kts 218°
2026-04-30 22:22 -0.90303 110.71523 37933 ft 485 kts 218°
2026-04-30 22:22 -0.95629 110.67369 37932 ft 485 kts 217°
2026-04-30 22:23 -1.00918 110.63243 37930 ft 485 kts 217°
2026-04-30 22:23 -1.06240 110.59093 37932 ft 486 kts 217°
2026-04-30 22:24 -1.11604 110.54908 37928 ft 485 kts 217°
2026-04-30 22:24 -1.16909 110.50771 37925 ft 485 kts 217°
2026-04-30 22:25 -1.22229 110.46616 37925 ft 484 kts 217°
2026-04-30 22:25 -1.27550 110.42462 37925 ft 484 kts 217°
2026-04-30 22:26 -1.35586 110.36311 37926 ft 484 kts 216°
2026-04-30 22:27 -1.40956 110.32246 37927 ft 483 kts 216°
2026-04-30 22:27 -1.48952 110.26175 37929 ft 482 kts 216°
2026-04-30 22:28 -1.56973 110.20077 37919 ft 482 kts 216°
2026-04-30 22:29 -1.67654 110.11953 37913 ft 482 kts 216°
2026-04-30 22:31 -1.85906 109.97264 37899 ft 480 kts 217°
2026-04-30 22:32 -1.98937 109.86736 37902 ft 480 kts 217°
2026-04-30 22:33 -2.11919 109.76245 37904 ft 482 kts 218°
2026-04-30 22:35 -2.24997 109.65675 37900 ft 484 kts 218°
2026-04-30 22:36 -2.38122 109.55066 37905 ft 485 kts 218°
2026-04-30 22:37 -2.48618 109.46577 37906 ft 486 kts 218°
2026-04-30 22:38 -2.59152 109.38056 37910 ft 487 kts 218°
2026-04-30 22:39 -2.67073 109.31648 37911 ft 488 kts 218°
2026-04-30 22:40 -2.83152 109.19061 37892 ft 486 kts 206°
2026-04-30 22:41 -2.92707 109.16212 37893 ft 478 kts 181°
2026-04-30 22:41 -2.99317 109.16685 37894 ft 472 kts 165°
2026-04-30 22:43 -3.18162 109.22366 37891 ft 471 kts 160°
2026-04-30 22:44 -3.30745 109.26192 37890 ft 471 kts 161°
2026-04-30 22:45 -3.49612 109.31915 37889 ft 471 kts 161°
2026-04-30 22:47 -3.68454 109.37633 37889 ft 471 kts 161°
2026-04-30 22:48 -3.81043 109.41453 37888 ft 471 kts 161°
2026-04-30 22:49 -3.99889 109.47179 37886 ft 472 kts 161°
2026-04-30 22:51 -4.18767 109.52912 37896 ft 471 kts 161°
2026-04-30 22:52 -4.28196 109.55777 37903 ft 471 kts 161°
2026-04-30 22:53 -4.40797 109.59609 37912 ft 472 kts 161°
2026-04-30 22:53 -4.50241 109.62481 37911 ft 472 kts 161°
2026-04-30 22:55 -4.65982 109.67269 37912 ft 472 kts 161°
2026-04-30 22:56 -4.78567 109.71101 37910 ft 472 kts 161°
2026-04-30 22:57 -4.94326 109.75897 37913 ft 471 kts 161°
2026-04-30 22:58 -5.06876 109.79722 37911 ft 471 kts 161°
2026-04-30 22:59 -5.25793 109.85488 37913 ft 473 kts 161°